Time,TemperatureF,DewpointF,PressureIn,WindDirection,WindDirectionDegrees,WindSpeedMPH,WindSpeedGustMPH,Humidity,HourlyPrecipIn,Conditions,Clouds,dailyrainin,SolarRadiationWatts/m^2,SoftwareType,DateUTC
2013-08-14 00:01:00,68.6,64.0,29.74,SSW,205,0.0,4.0,84,0.00,,,0.00,0,weatherlink.com 1.10,2013-08-14 04:01:00,
2013-08-14 00:16:00,68.5,64.0,29.75,WSW,244,1.0,3.0,85,0.00,,,0.00,0,weatherlink.com 1.10,2013-08-14 04:16:00,
2013-08-14 00:31:00,68.3,64.0,29.74,South,184,0.0,4.0,85,0.00,,,0.00,0,weatherlink.com 1.10,2013-08-14 04:31:00,
2013-08-14 00:46:00,68.1,64.0,29.74,SSW,208,0.0,3.0,85,0.00,,,0.00,0,weatherlink.com 1.10,2013-08-14 04:46:00,
2013-08-14 01:01:00,68.0,64.0,29.73,SSW,211,0.0,2.0,86,0.00,,,0.00,0,weatherlink.com 1.10,2013-08-14 05:01:00,
2013-08-14 01:16:00,68.0,64.0,29.73,WNW,284,1.0,3.0,86,0.00,,,0.00,0,weatherlink.com 1.10,2013-08-14 05:16:00,
2013-08-14 01:31:00,67.8,64.0,29.73,WSW,254,2.0,7.0,87,0.00,,,0.00,0,weatherlink.com 1.10,2013-08-14 05:31:00,
2013-08-14 01:46:00,67.5,64.0,29.73,West,259,2.0,6.0,87,0.00,,,0.00,0,weatherlink.com 1.10,2013-08-14 05:46:00,
2013-08-14 02:01:00,67.3,64.0,29.73,SW,234,1.0,4.0,88,0.00,,,0.00,0,weatherlink.com 1.10,2013-08-14 06:01:00,
2013-08-14 02:16:00,67.0,64.0,29.73,WSW,239,0.0,3.0,89,0.00,,,0.00,0,weatherlink.com 1.10,2013-08-14 06:16:00,
2013-08-14 02:31:00,66.9,64.0,29.73,WNW,288,1.0,4.0,90,0.00,,,0.00,0,weatherlink.com 1.10,2013-08-14 06:31:00,
2013-08-14 02:46:00,66.8,64.0,29.72,West,276,1.0,4.0,90,0.00,,,0.00,0,weatherlink.com 1.10,2013-08-14 06:46:00,
2013-08-14 03:01:00,66.8,64.0,29.72,West,269,3.0,5.0,90,0.00,,,0.00,0,weatherlink.com 1.10,2013-08-14 07:01:00,
2013-08-14 03:17:00,66.9,64.0,29.73,SW,223,1.0,6.0,90,0.00,,,0.00,0,weatherlink.com 1.10,2013-08-14 07:17:00,
2013-08-14 03:32:00,66.8,64.0,29.73,West,279,2.0,4.0,90,0.00,,,0.00,0,weatherlink.com 1.10,2013-08-14 07:32:00,
2013-08-14 03:46:00,66.7,64.0,29.73,West,273,1.0,5.0,90,0.00,,,0.00,0,weatherlink.com 1.10,2013-08-14 07:46:00,
2013-08-14 04:01:00,66.7,64.0,29.73,WNW,293,2.0,5.0,90,0.00,,,0.00,0,weatherlink.com 1.10,2013-08-14 08:01:00,
2013-08-14 04:17:00,67.0,63.0,29.72,WNW,289,6.0,8.0,87,0.00,,,0.00,0,weatherlink.com 1.10,2013-08-14 08:17:00,
2013-08-14 04:32:00,66.9,62.0,29.73,West,278,3.0,10.0,85,0.00,,,0.00,0,weatherlink.com 1.10,2013-08-14 08:32:00,
2013-08-14 04:47:00,66.4,60.0,29.74,West,274,2.0,7.0,81,0.00,,,0.00,0,weatherlink.com 1.10,2013-08-14 08:47:00,
2013-08-14 05:02:00,66.0,59.0,29.75,West,271,2.0,6.0,79,0.00,,,0.00,0,weatherlink.com 1.10,2013-08-14 09:02:00,
2013-08-14 05:17:00,65.4,58.0,29.75,West,271,4.0,5.0,77,0.00,,,0.00,0,weatherlink.com 1.10,2013-08-14 09:17:00,
2013-08-14 05:32:00,64.9,56.0,29.76,West,273,3.0,10.0,74,0.00,,,0.00,0,weatherlink.com 1.10,2013-08-14 09:32:00,
2013-08-14 05:47:00,64.6,55.0,29.77,West,268,4.0,10.0,70,0.00,,,0.00,0,weatherlink.com 1.10,2013-08-14 09:47:00,
2013-08-14 06:02:00,64.2,53.0,29.77,WSW,240,4.0,8.0,68,0.00,,,0.00,7,weatherlink.com 1.10,2013-08-14 10:02:00,
2013-08-14 06:17:00,64.0,53.0,29.78,West,275,3.0,9.0,67,0.00,,,0.00,14,weatherlink.com 1.10,2013-08-14 10:17:00,
2013-08-14 06:32:00,63.7,53.0,29.78,West,279,4.0,6.0,68,0.00,,,0.00,28,weatherlink.com 1.10,2013-08-14 10:32:00,
2013-08-14 06:47:00,63.6,53.0,29.78,WNW,286,4.0,8.0,68,0.00,,,0.00,77,weatherlink.com 1.10,2013-08-14 10:47:00,
2013-08-14 07:02:00,63.4,53.0,29.78,WNW,285,1.0,7.0,70,0.00,,,0.00,137,weatherlink.com 1.10,2013-08-14 11:02:00,
2013-08-14 07:17:00,63.6,53.0,29.79,WNW,296,10.0,10.0,68,0.00,,,0.00,200,weatherlink.com 1.10,2013-08-14 11:17:00,
2013-08-14 07:32:00,63.7,52.0,29.79,NW,309,7.0,11.0,65,0.00,,,0.00,229,weatherlink.com 1.10,2013-08-14 11:32:00,
2013-08-14 07:47:00,63.9,51.0,29.79,NW,316,5.0,13.0,64,0.00,,,0.00,276,weatherlink.com 1.10,2013-08-14 11:47:00,
2013-08-14 08:02:00,64.0,51.0,29.79,WNW,290,9.0,17.0,63,0.00,,,0.00,338,weatherlink.com 1.10,2013-08-14 12:02:00,
2013-08-14 08:17:00,64.4,51.0,29.79,West,276,1.0,12.0,62,0.00,,,0.00,388,weatherlink.com 1.10,2013-08-14 12:17:00,
2013-08-14 08:32:00,64.7,51.0,29.79,WNW,288,12.0,19.0,62,0.00,,,0.00,432,weatherlink.com 1.10,2013-08-14 12:32:00,
2013-08-14 08:47:00,65.3,51.0,29.78,West,277,10.0,15.0,60,0.00,,,0.00,473,weatherlink.com 1.10,2013-08-14 12:47:00,
2013-08-14 09:03:00,65.2,51.0,29.78,NW,308,9.0,18.0,60,0.00,,,0.00,522,weatherlink.com 1.10,2013-08-14 13:03:00,
2013-08-14 09:18:00,65.8,51.0,29.78,WNW,292,6.0,16.0,60,0.00,,,0.00,573,weatherlink.com 1.10,2013-08-14 13:18:00,
2013-08-14 09:33:00,66.3,51.0,29.78,NW,323,8.0,19.0,59,0.00,,,0.00,610,weatherlink.com 1.10,2013-08-14 13:33:00,
2013-08-14 09:48:00,66.8,51.0,29.77,West,273,9.0,15.0,58,0.00,,,0.00,656,weatherlink.com 1.10,2013-08-14 13:48:00,
2013-08-14 10:03:00,66.9,51.0,29.78,NNW,331,8.0,18.0,57,0.00,,,0.00,687,weatherlink.com 1.10,2013-08-14 14:03:00,
2013-08-14 10:18:00,67.4,51.0,29.78,NW,307,12.0,17.0,56,0.00,,,0.00,717,weatherlink.com 1.10,2013-08-14 14:18:00,
2013-08-14 10:33:00,67.7,51.0,29.78,WSW,246,10.0,19.0,56,0.00,,,0.00,752,weatherlink.com 1.10,2013-08-14 14:33:00,
2013-08-14 10:48:00,68.3,52.0,29.78,WSW,238,9.0,15.0,56,0.00,,,0.00,786,weatherlink.com 1.10,2013-08-14 14:48:00,
2013-08-14 11:03:00,69.0,52.0,29.78,West,263,6.0,14.0,55,0.00,,,0.00,807,weatherlink.com 1.10,2013-08-14 15:03:00,
2013-08-14 11:18:00,69.6,53.0,29.78,West,277,11.0,18.0,55,0.00,,,0.00,830,weatherlink.com 1.10,2013-08-14 15:18:00,
2013-08-14 11:33:00,69.7,53.0,29.78,WSW,240,8.0,22.0,55,0.00,,,0.00,867,weatherlink.com 1.10,2013-08-14 15:33:00,
2013-08-14 11:50:00,71.2,53.0,29.79,West,281,7.0,17.0,53,0.00,,,0.00,872,weatherlink.com 1.10,2013-08-14 15:50:00,
2013-08-14 12:03:00,71.1,52.0,29.78,NNW,331,12.0,18.0,52,0.00,,,0.00,875,weatherlink.com 1.10,2013-08-14 16:03:00,
2013-08-14 12:18:00,71.2,53.0,29.78,WNW,286,5.0,18.0,53,0.00,,,0.00,888,weatherlink.com 1.10,2013-08-14 16:18:00,
2013-08-14 12:33:00,71.2,53.0,29.79,WNW,284,9.0,19.0,52,0.00,,,0.00,902,weatherlink.com 1.10,2013-08-14 16:33:00,
2013-08-14 13:03:00,72.7,52.0,29.80,West,280,4.0,14.0,49,0.00,,,0.00,921,weatherlink.com 1.10,2013-08-14 17:03:00,
2013-08-14 13:18:00,72.0,52.0,29.79,NW,314,15.0,19.0,49,0.00,,,0.00,904,weatherlink.com 1.10,2013-08-14 17:18:00,
2013-08-14 13:33:00,72.1,52.0,29.79,West,261,8.0,17.0,49,0.00,,,0.00,935,weatherlink.com 1.10,2013-08-14 17:33:00,
2013-08-14 13:48:00,73.1,52.0,29.79,WNW,283,4.0,15.0,48,0.00,,,0.00,998,weatherlink.com 1.10,2013-08-14 17:48:00,
2013-08-14 14:19:00,72.7,52.0,29.79,WNW,300,13.0,23.0,48,0.00,,,0.00,865,weatherlink.com 1.10,2013-08-14 18:19:00,
2013-08-14 14:49:00,72.9,53.0,29.79,West,267,5.0,21.0,49,0.00,,,0.00,823,weatherlink.com 1.10,2013-08-14 18:49:00,
2013-08-14 15:04:00,74.0,52.0,29.79,WSW,255,7.0,22.0,46,0.00,,,0.00,789,weatherlink.com 1.10,2013-08-14 19:04:00,
2013-08-14 15:19:00,73.5,52.0,29.79,NW,311,11.0,20.0,47,0.00,,,0.00,807,weatherlink.com 1.10,2013-08-14 19:19:00,
2013-08-14 15:34:00,73.5,52.0,29.80,NNW,336,7.0,21.0,47,0.00,,,0.00,364,weatherlink.com 1.10,2013-08-14 19:34:00,
2013-08-14 15:49:00,73.4,52.0,29.80,NW,304,12.0,19.0,48,0.00,,,0.00,160,weatherlink.com 1.10,2013-08-14 19:49:00,
2013-08-14 16:04:00,74.3,53.0,29.80,NW,325,12.0,17.0,47,0.00,,,0.00,633,weatherlink.com 1.10,2013-08-14 20:04:00,
2013-08-14 16:19:00,74.4,52.0,29.80,WNW,285,7.0,24.0,46,0.00,,,0.00,587,weatherlink.com 1.10,2013-08-14 20:19:00,
2013-08-14 16:34:00,74.4,53.0,29.81,NW,325,12.0,21.0,47,0.00,,,0.00,534,weatherlink.com 1.10,2013-08-14 20:34:00,
2013-08-14 16:49:00,74.6,52.0,29.80,NNW,345,7.0,21.0,46,0.00,,,0.00,508,weatherlink.com 1.10,2013-08-14 20:49:00,
2013-08-14 17:04:00,74.7,53.0,29.81,WNW,298,7.0,21.0,47,0.00,,,0.00,454,weatherlink.com 1.10,2013-08-14 21:04:00,
2013-08-14 17:19:00,74.2,53.0,29.82,WNW,288,13.0,21.0,47,0.00,,,0.00,417,weatherlink.com 1.10,2013-08-14 21:19:00,
2013-08-14 17:34:00,74.7,53.0,29.82,NW,321,11.0,17.0,47,0.00,,,0.00,362,weatherlink.com 1.10,2013-08-14 21:34:00,
2013-08-14 17:49:00,74.0,53.0,29.83,WSW,237,9.0,18.0,48,0.00,,,0.00,308,weatherlink.com 1.10,2013-08-14 21:49:00,
2013-08-14 18:04:00,74.0,53.0,29.84,NW,318,6.0,18.0,48,0.00,,,0.00,271,weatherlink.com 1.10,2013-08-14 22:04:00,
2013-08-14 18:19:00,73.6,54.0,29.84,WNW,303,8.0,16.0,50,0.00,,,0.00,207,weatherlink.com 1.10,2013-08-14 22:19:00,
2013-08-14 18:34:00,73.1,53.0,29.85,WNW,283,6.0,20.0,49,0.00,,,0.00,149,weatherlink.com 1.10,2013-08-14 22:34:00,
2013-08-14 18:49:00,72.7,53.0,29.86,NW,313,4.0,14.0,51,0.00,,,0.00,93,weatherlink.com 1.10,2013-08-14 22:49:00,
2013-08-14 19:04:00,71.9,54.0,29.87,WNW,284,10.0,17.0,54,0.00,,,0.00,53,weatherlink.com 1.10,2013-08-14 23:04:00,
2013-08-14 19:19:00,71.2,55.0,29.88,NW,319,8.0,12.0,56,0.00,,,0.00,18,weatherlink.com 1.10,2013-08-14 23:19:00,
2013-08-14 19:34:00,70.6,54.0,29.89,West,264,6.0,11.0,57,0.00,,,0.00,12,weatherlink.com 1.10,2013-08-14 23:34:00,
2013-08-14 20:04:00,69.4,54.0,29.90,NW,307,1.0,11.0,59,0.00,,,0.00,0,weatherlink.com 1.10,2013-08-15 00:04:00,
2013-08-14 20:19:00,69.0,54.0,29.91,WNW,296,4.0,11.0,59,0.00,,,0.00,0,weatherlink.com 1.10,2013-08-15 00:19:00,
2013-08-14 20:34:00,68.6,54.0,29.93,WNW,283,4.0,9.0,60,0.00,,,0.00,0,weatherlink.com 1.10,2013-08-15 00:34:00,
2013-08-14 20:49:00,68.2,55.0,29.93,NW,310,2.0,10.0,62,0.00,,,0.00,0,weatherlink.com 1.10,2013-08-15 00:49:00,
2013-08-14 21:04:00,67.8,55.0,29.95,West,273,3.0,8.0,63,0.00,,,0.00,0,weatherlink.com 1.10,2013-08-15 01:04:00,
2013-08-14 21:19:00,67.2,55.0,29.96,West,280,1.0,6.0,64,0.00,,,0.00,0,weatherlink.com 1.10,2013-08-15 01:19:00,
2013-08-14 21:34:00,66.5,55.0,29.96,WNW,291,1.0,5.0,66,0.00,,,0.00,0,weatherlink.com 1.10,2013-08-15 01:34:00,
2013-08-14 21:49:00,65.9,55.0,29.97,WNW,282,4.0,5.0,68,0.00,,,0.00,0,weatherlink.com 1.10,2013-08-15 01:49:00,
2013-08-14 22:04:00,65.5,55.0,29.98,West,269,5.0,8.0,68,0.00,,,0.00,0,weatherlink.com 1.10,2013-08-15 02:04:00,
2013-08-14 22:19:00,65.7,53.0,29.98,NW,314,3.0,13.0,63,0.00,,,0.00,0,weatherlink.com 1.10,2013-08-15 02:19:00,
2013-08-14 22:34:00,65.5,52.0,29.98,NW,310,2.0,10.0,63,0.00,,,0.00,0,weatherlink.com 1.10,2013-08-15 02:34:00,
2013-08-14 22:49:00,65.0,52.0,29.99,WNW,294,5.0,6.0,64,0.00,,,0.00,0,weatherlink.com 1.10,2013-08-15 02:49:00,
2013-08-14 23:04:00,64.4,52.0,30.00,WNW,292,3.0,7.0,65,0.00,,,0.00,0,weatherlink.com 1.10,2013-08-15 03:04:00,
2013-08-14 23:20:00,64.0,53.0,30.00,WNW,287,2.0,6.0,67,0.00,,,0.00,0,weatherlink.com 1.10,2013-08-15 03:20:00,
2013-08-14 23:35:00,63.4,53.0,30.01,WNW,288,2.0,6.0,69,0.00,,,0.00,0,weatherlink.com 1.10,2013-08-15 03:35:00,
2013-08-14 23:50:00,62.9,53.0,30.02,WSW,247,2.0,5.0,71,0.00,,,0.00,0,weatherlink.com 1.10,2013-08-15 03:50:00,